Вернуться в каталог

FREGAT DEB

АктивенUNKNOWN
NORAD 45650·DEBRIS·🇷🇺 Russia

Запущен Jul 18, 2011 с Baikonur Cosmodrome

Loading…

Ближайшие Пролёты (ближайшие 24 часа)

TLE

СвежийSource: Space-Track

Эпоха: Sep 14, 2026, 08:06 UTC

1 45650U 11037AS  26257.33810308  .00003039  00000-0  58074-3 0  9992
2 45650  51.4586  29.7246 1669555 336.1161  17.0135 11.77056125265688

Отслеживайте FREGAT DEB в реальном времени с AllMySat

Download on the App Store